Vorticity
4 2 2 3 2 1 3 3 5 10 4 3 2 2 1 0 3 3 2 2 3 3 3 3 2 3 2 2 2 1 2 3 3
1 4 1 3 2 2 2 3 3 4 7 4 2 2 3 1 2 1 3 2 3 3 3 3 3 3 2 1 1 1 1 2 3
3 2 4 4 2 1 2 2 3 4 4 5 4 3 2 2 2 3 3 3 2 2 2 1 0 1 2 1 2 0 -0 1 1
3 3 3 3 3 2 2 2 2 3 4 4 4 4 3 2 3 3 3 2 1 1 0 1 2 2 2 2 2 2 1 1 3
2 4 2 3 4 2 2 2 2 2 3 4 4 4 2 4 4 3 2 2 2 1 -1 2 3 2 2 2 3 3 2 4 5
4 3 3 2 2 4 2 2 2 2 2 3 3 3 3 3 2 2 1 1 1 -1 -1 0 2 2 3 4 3 2 4 4 5
1 5 2 7 -0 3 4 2 2 2 2 2 2 2 2 1 1 1 1 2 1 -0 -1 -1 2 3 3 3 3 4 4 4 4
1 3 3 7 2 0 4 4 3 1 2 2 3 3 2 1 2 2 1 2 2 0 -1 -2 1 3 3 3 3 3 3 4 3
13 1 1 0 4 1 2 4 3 2 2 2 2 3 1 2 2 2 3 3 2 2 0 1 3 3 4 3 3 4 3 5 1
29 -0 3 2 3 3 1 3 4 3 3 1 2 2 2 2 2 2 2 2 2 2 2 3 3 4 3 3 4 4 4 4 1
12 11 -4 2 5 3 1 2 4 3 2 2 2 2 2 2 3 2 3 3 3 2 3 4 3 3 3 3 4 5 5 4 6
-10 -52 21 1 3 3 3 1 2 4 4 3 2 2 2 2 3 2 2 3 3 3 2 3 4 3 4 4 4 4 4 4 8
18 34 -10 -19 4 1 5 5 1 3 4 4 2 2 2 3 2 2 3 2 3 2 3 3 3 3 3 3 3 3 3 5 5
1 -17 10 15 13 2 2 7 2 1 3 4 4 2 2 2 2 3 2 2 2 2 3 3 2 3 3 3 3 3 4 5 5
15 24 17 23 5 13 4 4 7 2 2 3 3 3 3 2 2 2 2 2 2 2 2 2 3 2 2 3 3 4 4 4 5
8 2 -6 -16 -11 12 9 3 6 5 2 2 3 4 4 3 2 2 2 2 2 2 2 2 3 2 2 2 3 3 4 5 5
6 -4 12 30 4 28 3 4 10 5 4 2 2 2 3 5 4 3 3 3 2 2 2 2 3 3 2 2 2 3 4 4 5
-12 3 8 22 -9 10 2 11 3 5 5 5 3 3 4 3 4 4 4 3 2 2 3 3 3 3 2 2 3 3 5 4 6
-1 7 13 18 21 46 9 -8 9 4 3 4 5 3 4 4 4 4 4 4 3 3 3 3 3 2 2 2 3 4 4 4 3
1 -25 -19 8 -12 15 -15 10 -16 34 8 2 3 5 3 2 4 6 4 3 2 2 1 1 1 1 2 3 4 5 2 1 4
Height
5880 5883 5882 5884 5885 5885 5887 5888 5888 5889 5889 5891 5891 5892 5893 5894 5896 5896 5896 5895 5895 5895 5896 5896 5898 5898 5898 5899 5899 5899 5898 5898 5898
5879 5881 5882 5882 5884 5885 5885 5887 5888 5890 5890 5891 5893 5894 5895 5896 5897 5898 5899 5899 5898 5898 5899 5899 5900 5901 5902 5902 5901 5901 5902 5901 5901
5876 5878 5880 5881 5882 5884 5886 5886 5888 5889 5891 5892 5893 5894 5896 5897 5899 5900 5901 5901 5901 5900 5900 5901 5903 5903 5904 5903 5903 5903 5903 5903 5903
5872 5876 5877 5879 5881 5882 5884 5886 5887 5888 5890 5892 5893 5895 5896 5897 5900 5901 5902 5902 5902 5903 5903 5903 5904 5905 5905 5905 5905 5905 5905 5904 5903
5864 5870 5874 5877 5879 5880 5882 5884 5887 5887 5889 5891 5894 5895 5897 5898 5899 5901 5902 5903 5904 5905 5906 5906 5906 5907 5907 5906 5906 5905 5906 5905 5904
5858 5863 5867 5870 5874 5877 5878 5882 5885 5886 5888 5890 5892 5895 5896 5898 5899 5901 5902 5904 5905 5906 5906 5907 5908 5908 5907 5907 5906 5906 5906 5905 5905
5852 5856 5861 5864 5868 5872 5875 5877 5881 5885 5886 5887 5890 5892 5894 5896 5898 5900 5902 5903 5905 5907 5908 5908 5909 5909 5908 5907 5906 5906 5906 5906 5905
5840 5847 5852 5855 5861 5868 5872 5875 5877 5880 5883 5885 5887 5889 5892 5894 5895 5898 5901 5902 5903 5905 5906 5907 5908 5909 5909 5908 5907 5906 5906 5905 5905
5825 5837 5843 5848 5854 5860 5866 5869 5872 5874 5877 5882 5884 5887 5889 5892 5893 5895 5897 5900 5901 5902 5904 5905 5906 5907 5907 5907 5907 5906 5905 5904 5904
5820 5828 5834 5839 5845 5851 5857 5861 5866 5870 5871 5875 5879 5882 5886 5889 5891 5893 5894 5897 5899 5901 5902 5903 5904 5905 5905 5906 5905 5905 5904 5904 5904
5806 5815 5821 5826 5831 5839 5847 5852 5857 5862 5866 5869 5871 5876 5881 5885 5887 5890 5892 5894 5896 5898 5900 5902 5902 5903 5903 5904 5903 5903 5903 5903 5902
5796 5797 5805 5814 5823 5833 5838 5841 5846 5854 5859 5864 5867 5869 5874 5878 5882 5886 5889 5891 5894 5895 5897 5900 5900 5901 5902 5902 5901 5901 5901 5901 5900
5781 5791 5796 5803 5811 5820 5831 5835 5839 5846 5850 5856 5860 5865 5868 5872 5877 5881 5884 5887 5890 5893 5894 5896 5897 5898 5900 5900 5900 5899 5899 5898 5898
5772 5776 5783 5790 5799 5807 5817 5824 5831 5837 5842 5847 5852 5857 5861 5866 5870 5875 5879 5882 5885 5887 5890 5891 5893 5894 5895 5896 5896 5896 5896 5895 5895
5758 5767 5776 5778 5788 5796 5803 5810 5817 5827 5833 5838 5843 5848 5855 5861 5865 5869 5873 5877 5879 5882 5884 5886 5888 5889 5892 5892 5893 5893 5893 5892 5892
5745 5755 5763 5769 5775 5783 5792 5801 5805 5813 5821 5828 5835 5841 5848 5854 5859 5864 5868 5871 5874 5876 5878 5881 5884 5885 5886 5888 5888 5889 5889 5889 5888
5732 5742 5751 5758 5763 5767 5779 5788 5794 5802 5809 5817 5825 5831 5839 5845 5851 5857 5862 5866 5868 5870 5873 5875 5877 5879 5880 5882 5883 5884 5885 5884 5884
5715 5729 5740 5747 5755 5756 5766 5777 5781 5789 5797 5808 5816 5821 5832 5838 5842 5850 5854 5858 5861 5864 5866 5868 5871 5873 5875 5877 5877 5878 5879 5880 5879
5703 5714 5727 5735 5742 5748 5751 5760 5769 5775 5784 5796 5803 5810 5820 5826 5834 5840 5846 5849 5853 5856 5858 5860 5863 5866 5869 5871 5872 5873 5874 5874 5874
5690 5701 5712 5724 5731 5737 5741 5747 5755 5761 5770 5783 5792 5799 5809 5816 5825 5832 5837 5840 5843 5845 5846 5850 5854 5858 5862 5865 5866 5868 5869 5868 5868